ジャック彗星

C/2017 K6 ( Jacques )

English version
Home page
Updated on August 15, 2020

---------------------------------------------------------------------

・ プロフィール

発見日 2017年5月29日
発見光度 17.5等
発見者 Cristovao Jacques (SONEAR Observatory at Oliveira)

・ 写真集

・ 軌道要素

Epoch 2018 Jan. 2.0 TT = JDT 2458120.5
T 2018 Jan. 3.13747 TT                                  MPCW
q   2.0027572            (2000.0)            P               Q
z  +0.0008955      Peri.  303.83872     +0.49565894     -0.22851053
 +/-0.0000011      Node    85.05448     +0.75134489     +0.59676100
e   0.9982065      Incl.   57.25098     -0.43566394     +0.76919389
From 445 observations 2017 May 29-2019 Feb. 14, mean residual 0".6.

・ 星図

・ 光度変化

        m1 = 8.5 + 5 logΔ + 12.5 log r(t - 30)  [  ,25]  (              〜2018年 1月28日)
        m1 = 9.2 + 5 logΔ + 10.0 log r          [25,  ]  (2018年 1月28日〜              )

---------------------------------------------------------------------

軌道要素はM.P.E.C. 2019-J142に掲載されたものです。
星図はステラナビゲータ Ver.10 (アストロアーツ) で作成したものです。
光度グラフはComet for Windowsで作成したものです。

---------------------------------------------------------------------

Copyright(C) Seiichi Yoshida (comet@aerith.net). All rights reserved.